Zurück zum Katalog

BEIYOU-3

AktivWissenschaftSSO
NORAD 64053·PAYLOAD·🇨🇳 China
Dieser Satellitenname wurde noch nicht durch offizielle Quellen bestätigt.

Gestartet May 17, 2025 von Jiuquan Satellite Launch Center

Loading…

Nächste Überflüge (nächste 24 Stunden)

TLE

AktuellSource: Space-Track

Epoche: Sep 14, 2026, 12:51 UTC

1 64053U 25103F   26257.53582269  .00002847  00000-0  13711-3 0  9998
2 64053  97.3729 326.9562 0002572 183.3876 176.7342 15.19540791 73611

Verfolge BEIYOU-3 in Echtzeit mit AllMySat

Download on the App Store